Regional Weather Roundup
Issued by NWS

Home | Current Version | Previous Version | Text Only | Print | Product List | Glossary On
Versions: 1 2 3 4 5 6 7 8 9 10 11 12 13 14 15 16 17 18 19 20 21 22 23 24 25 26 27 28 29 30 31 32 33 34 35 36 37 38 39 40 41 42 43 44 45 46 47 48 49 50
135
ASUS42 KTBW 110216
RWRFL
FLORIDA REGIONAL WEATHER ROUNDUP
NATIONAL WEATHER SERVICE TAMPA BAY RUSKIN FL
900 PM EST SAT DEC 10 2016

NOTE: "FAIR" INDICATES FEW OR NO CLOUDS BELOW 12,000 FEET WITH NO
SIGNIFICANT WEATHER AND/OR OBSTRUCTIONS TO VISIBILITY.

FLZ001>010-012>015-112-114-115-110300-
PANHANDLE FLORIDA

CITY           SKY/WX    TMP DP  RH WIND       PRES   REMARKS
PENSACOLA      CLEAR     44  29  55 N5        30.38F WCI  42
PENSACOLA NAS  CLEAR     37  29  72 CALM      30.38F
MILTON NAS     CLEAR     35  25  66 N5        30.39S WCI  31
CRESTVIEW      CLEAR     32  28  85 CALM      30.41S
DUKE FIELD     FAIR      33  25  70 CALM      30.38S
VALPARAISO     CLEAR     39  25  56 N6        30.39S WCI  35
MARY ESTHER    CLEAR     38  28  65 N6        30.38R WCI  34
TRI COUNTY     FAIR      37  34  89 CALM      30.40S
PANAMA CITY    FAIR      37  33  85 N3        30.37S
TYNDALL AFB    CLEAR     47  27  46 E6        30.37F WCI  44
APALACHICOLA   PTCLDY    45  28  51 NE6       30.37S WCI  42

STATION/POSITION SKY/WX   TEMP    WIND        PRES    WAVE   SWELL
                          AIR SEA DIR/SP/G            HT/PER HT/PER
                          (F)     (DEG/KT/KT) (MB)    (FT/S) (FT/S)
30.1N   87.6W              56 69   30/ 10/ 14 1028.9F   2/ 6   2/ 6
29.2N   88.2W              58 74   60/ 10/ 14 1028.3F
28.8N   86.0W              61 74              1027.4F   4/ 6
PANAMA CITY BEAC           49 66   70/  3/  5 1028.8F
TOWER C                    58      50/ 18/ 21 1028.1F
28.5N   84.5W              65 73   70/ 17/ 21 1026.2F   4/ 6

$$
FLZ011-016>038-118-127-128-134-139-239-110300-
NORTH FLORIDA

CITY           SKY/WX    TMP DP  RH WIND       PRES   REMARKS
MARIANNA       CLEAR     43  28  55 NE5       30.39S WCI  40
TALLAHASSEE    CLEAR     42  30  62 CALM      30.38F
PERRY          CLEAR    N/A N/A N/A NE5       30.39S
CROSS CITY     CLEAR     52  45  76 NE7       30.37S
LAKE CITY      FAIR      48  43  81 NE6       30.39S
GAINESVILLE    CLEAR     50  44  80 N9        30.38R
WILLISTON      CLEAR     54  48  82 N5        30.37R
PALATKA        MOCLDY    50  50 100 N5        30.37S
MAYPORT NAS    CLOUDY    59  50  72 NE14      30.38S
JACKSONVILLE   PTCLDY    46  44  93 N5        30.39F WCI  44
JAX NAS        PTCLDY    53  47  79 N13       30.39S
FERNANDINA BEA FAIR      59  50  72 NE12      30.38S
ST AUGUSTINE   CLOUDY    61  54  77 N13       30.37S
PALM COAST     FAIR      54  53  94 MISG      30.35R

STATION/POSITION SKY/WX   TEMP    WIND        PRES    WAVE   SWELL
                          AIR SEA DIR/SP/G            HT/PER HT/PER
                          (F)     (DEG/KT/KT) (MB)    (FT/S) (FT/S)
SHELL POINT      NOT AVBL
KEATON BEACH               48      40/  5/  7 1028.0F
CEDAR KEY                  57      60/ 15/ 18 1027.8R
FERNANDINA                 57 63   30/  7/  9 1029.0F
30.7N   81.3W                 63                N/A     5/ 6
MAYPORT                    59 63   40/ 17/ 20 1028.7S
31.4N   80.9W              56 62   50/ 17/ 19 1029.6F   4/ 5   2/11
ST AUGUSTINE               62 64   10/ 19/ 20 1028.5F

$$
FLZ040-043>046-052-053-057-058-063-144-110300-
INTERIOR CENTRAL FLORIDA

CITY           SKY/WX    TMP DP  RH WIND       PRES   REMARKS
OCALA          CLEAR     52  45  76 NE5       30.36R
THE VILLAGES     N/A     55  54  94 MISG      30.25S
LEESBURG       CLEAR     55  49  80 NE7       30.35S
SANFORD        CLEAR     57  52  83 N6        30.33F
ORLANDO EXEC   CLEAR     60  54  80 N9        30.33S
ORLANDO INTL   PTCLDY    58  53  84 N8        30.33S
KISSIMMEE      CLEAR     61  53  75 NE6       30.33S
WINTER HAVEN   CLEAR     60  52  74 NE9       30.33R
LAKELAND       CLEAR     61  54  77 NE7       30.32R
BARTOW         MOCLDY    61  52  72 NE10      30.31S
OKEECHOBEE     CLOUDY    61  57  88 N5        30.29R

$$
FLZ041-047-054-059-064-141-147-110300-
EAST CENTRAL FLORIDA

CITY           SKY/WX    TMP DP  RH WIND       PRES   REMARKS
DAYTONA BEACH  PTCLDY    55  54  96 CALM      30.34S
DELAND         CLEAR     55  52  88 E6        30.34R
JFK SPACE CTR  CLEAR     65  51  61 E10G16    30.31S
TITUSVILLE     CLEAR     63  54  72 NE12      30.33S
CAPE CANAVERAL CLEAR     67  53  60 E12G21    30.31S
PATRICK AFB    CLEAR     68  55  63 NE17      30.30S
MELBOURNE      PTCLDY    67  55  65 NE14G24   30.31S
VERO BEACH     CLOUDY    70  57  63 NE15G25   30.29S
FT PIERCE      MOCLDY    70  59  68 E10G18    30.28S

STATION/POSITION SKY/WX   TEMP    WIND        PRES    WAVE   SWELL
                          AIR SEA DIR/SP/G            HT/PER HT/PER
                          (F)     (DEG/KT/KT) (MB)    (FT/S) (FT/S)
TRIDENT PIER               66 71   40/ 11/ 16 1026.4F
28.4N   80.5W                 69                N/A     3/ 6

$$
FLZ050-056-061-142-242-148-248-149-249-151-251-155-255-
160-260-110300-
WEST CENTRAL FLORIDA

CITY           SKY/WX    TMP DP  RH WIND       PRES   REMARKS
CRYSTAL RIVER  FAIR      54  46  76 NE6       30.35R
INVERNESS      FAIR      54  50  87 NE7       30.35S
BROOKSVILLE    CLEAR     59  51  75 NE15      30.33S
CLEARWATER AIR FAIR      61  52  72 E9        30.30R
ST PETE CLEARW CLEAR     64  54  69 E10       30.30R
TAMPA INTL     PTCLDY    64  52  64 NE6       30.31S
TAMPA EXEC     CLEAR     61  52  72 CALM      30.32R
PLANT CITY     CLEAR     63  55  77 NE7       30.33S
MACDILL AFB    CLEAR     62  56  80 E15       30.29S
PETER O KNIGHT CLEAR     64  55  72 NE10      30.31R
ST PETERSBURG  CLEAR     65  57  75 E17       30.29S
SARASOTA       CLEAR     64  54  69 E12       30.28R
VENICE         FAIR      66  57  72 NE15G21   30.28S

STATION/POSITION SKY/WX   TEMP    WIND        PRES    WAVE   SWELL
                          AIR SEA DIR/SP/G            HT/PER HT/PER
                          (F)     (DEG/KT/KT) (MB)    (FT/S) (FT/S)
CLEARWATER BEACH           64 65   70/  9/ 11 1026.2R
MIDDLE TAMPA BAY           65      90/ 14/ 18 1026.2R
VENICE                     65 69   50/ 12/ 15 1024.9R

$$
FLZ066-069-070-075>078-162-262-165-265-110300-
SOUTHWEST FLORIDA AND KEYS

CITY           SKY/WX    TMP DP  RH WIND       PRES   REMARKS
PUNTA GORDA    CLEAR     63  56  78 NE12      30.29R
FT MYERS       PTCLDY    68  59  73 NE12      30.26R
SOUTHWEST INTL CLEAR     67  58  72 NE12      30.26R
NAPLES         CLOUDY    70  62  76 NE13      30.23S
MARCO ISLAND   MOCLDY    70  63  78 NE12G17   30.24R
MARATHON       HVY RAIN  74  70  87 NE17      30.18R FOG
KEY WEST NAS   MOCLDY    72  67  84 NE12G22   30.18S
KEY WEST INTL  MOCLDY    74  70  87 NE9G24    30.19R

STATION/POSITION SKY/WX   TEMP    WIND        PRES    WAVE   SWELL
                          AIR SEA DIR/SP/G            HT/PER HT/PER
                          (F)     (DEG/KT/KT) (MB)    (FT/S) (FT/S)
NAPLES                        70              1023.9R
26.0N   85.6W              69 76   50/ 16/ 17 1024.9R   6/ 7   3/ 9
DRY TORTUGAS               74      50/ 23/ 25 1022.8R
SAND KEY                   74      60/ 23/ 26 1022.3R
LONG KEY                   72 74   40/ 22/ 24 1022.3R
MOLASSES REEF              73 78   50/ 22/ 24 1021.4

$$
FLZ067-068-071>074-168-172>174-110300-
SOUTHEAST FLORIDA

CITY           SKY/WX    TMP DP  RH WIND       PRES   REMARKS
W PALM BEACH   CLOUDY    72  63  73 E16G25    30.26R
BOCA RATON     MOCLDY    73  66  78 E22G29    30.25R
FT LAUDER-EXEC PTCLDY    73  63  70 NE14G23   30.23R
FT LAUDERDALE  CLOUDY    73  65  75 E15G25    30.21S
POMPANO BEACH  CLOUDY    73  65  75 NE21G29   30.23R
PEMBROKE PINES LGT RAIN  70  66  87 NE14      30.24R
OPA LOCKA      CLOUDY    73  66  78 NE13      30.23R
MIAMI          LGT RAIN  70  66  87 NE15G22   30.22R
WEST KENDALL   CLOUDY    71  67  87 NE13      30.21R
HOMESTEAD      HVY RAIN  71  71 100 NE16      30.20R FOG

STATION/POSITION SKY/WX   TEMP    WIND        PRES    WAVE   SWELL
                          AIR SEA DIR/SP/G            HT/PER HT/PER
                          (F)     (DEG/KT/KT) (MB)    (FT/S) (FT/S)
PORT EVERGLADES            75      60/ 22/ 28 1023.2R
VIRGINIA KEY               74 82   50/ 16/ 27 1023.2R
LAKE WORTH                 74 76   70/ 24/ 27 1023.9R
FOWEY ROCKS                74 78   40/ 31/ 34 1023.1R

$$





USA.gov is the U.S. government's official web portal to all federal, state and local government web resources and services.